SCP
0 0 0 0 0 0 0 0 0 0 0 0 0 0 0 0 0 1 1 1 1 1 1 1 1 1 1 1 1 1 1 1 1 1 1 1 1 1 1 1 1 1 1 1 1 1 1 0 0
0 0 0 0 0 0 0 0 0 0 0 0 0 1 1 1 1 1 1 1 1 1 1 1 1 1 1 1 1 1 1 1 1 1 1 1 1 1 1 1 1 1 1 1 1 1 1 0 0
0 0 0 0 0 0 0 0 1 1 1 1 1 1 1 1 1 1 1 1 1 1 2 2 1 1 1 1 1 1 1 1 1 1 1 1 1 1 1 1 1 1 1 1 1 1 1 1 0
0 0 0 0 0 0 1 1 1 1 1 1 1 1 1 1 1 1 1 1 2 2 2 2 2 1 1 1 1 1 1 1 1 1 1 1 1 1 1 1 1 1 1 1 1 1 1 1 1
0 0 0 0 0 0 1 1 1 1 1 1 1 1 1 1 1 1 1 2 2 2 2 2 2 2 1 1 1 1 1 1 1 2 2 1 1 1 1 1 1 1 1 1 1 1 1 1 1
0 0 0 0 0 1 1 1 1 1 1 1 1 1 1 1 2 2 2 2 2 2 2 2 2 2 2 2 2 2 2 1 2 2 2 1 1 1 1 1 1 1 1 1 1 1 1 1 1
0 0 0 0 0 1 1 1 1 1 1 1 1 2 2 2 2 2 2 2 2 3 2 2 2 2 2 2 2 2 2 2 2 2 2 2 1 1 1 1 1 1 1 1 1 1 1 1 1
0 0 0 0 0 1 1 1 1 1 1 1 1 2 2 2 2 2 2 2 2 3 2 2 2 2 2 2 2 2 2 2 2 1 1 1 1 1 1 1 1 1 1 1 1 1 1 1 1
1 1 1 1 1 1 1 1 1 1 1 1 2 2 2 2 2 3 3 3 3 3 3 2 2 2 2 2 2 2 2 2 2 2 2 1 1 1 1 1 1 1 1 1 1 1 1 1 1
1 1 1 1 1 1 1 1 1 1 1 2 2 3 3 3 3 3 4 4 3 3 3 3 3 3 3 3 3 3 3 3 2 2 2 2 2 2 1 2 2 1 1 1 1 1 1 1 1
2 1 1 1 1 1 1 1 2 2 2 3 3 3 3 3 3 3 4 4 4 4 4 4 4 4 4 4 4 4 4 3 3 3 3 3 3 2 2 2 2 2 2 1 1 1 1 1 1
1 1 1 1 1 1 1 1 2 2 3 3 3 3 3 3 3 3 4 4 4 4 4 5 5 5 5 5 5 5 5 4 3 3 3 3 3 3 3 3 2 2 2 2 2 2 2 2 1
1 1 1 1 1 1 1 1 2 2 3 3 3 3 4 4 3 3 4 4 4 4 4 5 5 6 6 6 6 6 5 4 3 4 4 3 3 3 3 3 3 2 2 2 2 2 2 2 2
1 1 1 1 1 1 1 1 2 2 3 3 3 3 3 3 3 4 4 4 4 4 4 5 6 6 7 7 6 5 5 4 4 4 4 3 3 3 4 4 4 3 3 2 2 2 2 2 2
1 0 0 1 1 1 1 1 2 2 3 3 3 3 3 3 3 4 4 5 5 5 5 5 6 6 6 6 5 5 5 5 5 5 4 3 3 4 4 3 3 3 3 2 2 2 2 2 2
1 0 0 1 1 1 1 1 1 2 2 3 3 3 3 3 4 4 4 5 5 5 6 6 6 6 6 5 5 5 5 5 5 5 4 4 4 3 3 3 3 2 2 2 2 2 2 2 2
0 0 0 1 1 1 1 1 1 1 1 2 3 3 3 3 4 4 4 5 6 6 6 6 6 6 6 6 7 7 7 6 6 5 4 3 3 2 2 2 2 2 2 2 2 2 2 2 2
0 0 0 0 1 1 1 1 1 2 2 2 2 2 3 3 4 4 3 4 5 6 7 7 6 6 7 7 8 8 8 7 6 4 3 2 2 2 2 2 2 2 2 2 2 2 2 2 2
0 0 0 0 0 1 1 1 2 2 2 2 2 2 2 3 4 3 3 3 4 6 6 7 7 7 8 8 8 9 8 6 5 3 2 1 1 1 2 2 2 2 2 2 2 2 2 2 2
0 0 0 0 0 0 1 2 2 2 2 2 2 2 3 4 4 4 3 3 4 5 5 6 7 8 7 8 9 8 7 5 4 3 2 2 1 1 2 2 2 2 2 2 2 2 2 2 2
0 0 0 0 0 0 1 1 2 2 2 2 2 3 4 5 5 4 4 4 4 4 4 5 6 7 7 8 9 8 6 5 4 3 2 2 2 2 2 2 2 2 2 3 3 2 2 2 2
0 0 0 0 0 0 0 1 1 2 2 2 3 4 4 4 4 4 4 4 3 4 4 5 6 7 7 9 9 8 6 5 4 3 3 2 2 2 2 2 2 2 3 3 3 3 2 2 2
0 0 0 0 0 0 0 0 1 1 2 2 3 3 4 4 3 3 3 4 4 4 5 5 6 6 7 8 8 8 6 5 4 4 3 2 2 2 2 2 2 2 3 3 3 3 3 3 3
0 0 0 0 0 0 0 0 0 1 1 2 3 3 3 3 3 3 3 4 4 4 5 6 7 6 6 7 7 7 7 6 5 4 3 3 2 2 2 2 2 2 3 3 3 3 3 3 3
0 0 0 0 0 0 0 0 1 1 1 1 2 3 3 3 3 3 3 4 4 4 4 6 7 7 5 5 6 6 7 6 5 4 3 2 2 1 1 2 2 2 3 3 3 3 3 3 3
0 0 0 0 0 0 0 0 1 1 1 2 2 3 3 3 3 3 3 3 3 3 3 4 6 7 5 5 5 5 5 5 5 4 3 2 1 1 1 2 2 2 3 3 3 4 4 3 3
0 0 0 0 0 0 0 0 1 1 2 2 2 3 3 3 2 2 2 2 3 3 3 3 4 5 4 4 4 4 4 4 4 4 3 2 1 1 1 1 2 2 2 3 3 3 3 3 3
0 0 0 0 0 0 0 0 1 1 1 2 2 3 3 3 2 2 2 2 2 2 2 2 3 3 3 3 3 3 3 3 3 3 2 2 1 1 1 1 1 2 2 2 3 3 2 2 2
0 0 0 0 0 0 0 1 1 1 2 2 2 3 3 3 2 2 2 2 2 2 2 2 2 3 3 3 3 3 3 3 3 2 2 2 2 1 1 1 1 1 1 2 2 2 2 2 2
0 0 0 0 0 0 0 1 1 2 2 2 3 3 3 3 2 2 2 2 2 1 2 2 2 3 3 3 3 3 3 3 2 2 2 2 1 1 1 1 1 1 1 1 1 1 1 1 2
Wind_Speed
8 7 6 6 8 7 4 2 1 2 2 2 1 1 1 2 3 5 6 10 12 14 16 16 13 12 12 11 11 12 12 12 12 12 12 11 10 10 9 8 7 6 6 5 4 4 3 3 2
6 6 7 7 8 6 4 2 2 2 3 2 2 1 0 3 5 6 7 11 13 14 14 14 15 13 12 12 11 11 12 12 11 11 11 11 10 9 8 8 7 6 5 4 4 3 3 2 2
6 7 7 7 8 5 2 3 2 3 3 2 2 1 2 3 4 5 8 13 13 13 13 14 15 13 13 12 12 12 12 11 11 11 10 10 9 8 7 7 6 5 5 4 3 3 2 2 1
6 7 7 8 7 3 2 2 2 3 3 2 2 3 4 4 3 7 12 13 14 13 13 15 14 13 13 12 12 12 12 11 11 10 10 9 8 7 6 6 5 5 4 3 3 2 2 2 2
7 7 9 9 7 2 2 1 2 3 2 3 2 2 5 4 6 11 13 13 13 13 12 15 13 12 12 12 11 11 11 10 10 9 9 8 7 6 6 5 4 4 3 3 3 2 2 3 3
7 7 8 8 6 4 3 3 4 4 3 3 3 3 5 6 9 10 12 12 12 12 12 14 13 12 12 12 11 10 10 9 9 8 8 7 6 5 5 4 4 3 3 3 3 3 3 3 3
8 7 9 8 5 5 3 3 5 4 3 2 2 3 6 8 9 11 11 11 11 11 11 12 13 13 12 11 10 10 9 9 8 8 7 6 6 5 4 3 3 3 3 3 3 3 4 4 5
6 7 9 7 6 4 3 3 2 4 1 2 2 3 6 10 11 11 11 10 10 10 9 10 11 11 11 11 11 10 9 8 8 7 7 6 6 6 5 5 3 3 3 3 3 4 4 5 5
7 9 7 6 5 3 4 4 3 2 2 3 1 0 6 14 14 13 11 10 9 9 9 9 9 9 9 9 11 11 9 8 8 7 7 6 6 6 6 3 2 2 2 3 3 3 5 7 8
8 8 5 0 2 1 3 3 2 4 5 5 4 6 10 14 14 13 13 12 11 10 10 8 8 9 8 7 7 6 7 7 6 5 6 5 3 2 3 5 3 3 3 5 4 6 8 9 6
7 6 2 1 3 3 3 3 3 5 5 4 5 8 12 12 12 12 11 10 10 9 9 8 8 7 7 5 5 4 3 4 5 5 5 3 3 3 3 2 4 4 6 5 4 7 5 5 4
6 4 4 3 3 4 4 3 3 5 4 1 4 7 10 11 11 10 10 9 9 9 9 8 7 7 6 4 4 4 3 3 3 4 4 3 3 3 2 2 2 2 2 2 4 3 4 5 6
7 3 2 3 4 3 3 4 3 3 2 3 5 8 9 9 9 8 8 8 8 8 8 8 7 7 6 5 3 3 3 3 3 3 3 3 3 3 2 2 2 3 2 2 3 4 4 6 6
2 3 3 4 3 3 4 3 4 3 3 5 6 7 8 8 9 8 8 8 8 8 8 7 8 7 7 5 4 3 3 3 3 3 2 3 2 2 2 3 2 2 2 3 3 4 4 5 5
4 5 5 4 3 3 3 4 3 3 4 5 6 7 7 7 8 8 8 8 8 8 8 8 8 7 6 6 5 3 3 3 2 2 2 2 2 2 3 3 3 2 2 2 3 4 5 4 5
7 7 5 3 2 3 7 3 2 2 4 5 6 6 6 7 8 7 7 7 7 7 8 8 7 7 7 5 4 3 2 2 2 2 2 2 2 3 3 3 2 2 3 3 3 4 5 4 5
7 5 3 2 2 4 6 3 2 3 4 5 6 6 6 6 7 7 7 7 7 7 7 7 6 6 6 5 4 3 2 2 1 1 1 1 2 2 3 2 2 3 3 3 4 3 5 5 5
2 4 4 3 2 5 6 4 3 4 5 6 6 6 6 6 6 6 6 6 6 6 6 6 6 6 5 5 4 3 3 2 2 1 1 2 2 2 3 2 2 3 2 3 3 4 4 5 5
4 6 4 2 1 5 5 4 4 4 5 5 4 4 5 5 5 5 5 6 6 6 7 7 6 6 5 4 4 3 3 2 2 2 2 2 2 2 3 3 2 3 2 3 4 4 4 4 4
7 7 4 2 1 5 5 5 3 3 4 4 4 4 5 4 5 5 5 6 6 6 7 7 7 6 6 4 3 2 2 1 1 1 1 2 2 2 3 3 3 2 2 3 3 3 4 3 3
6 5 4 5 3 6 7 6 3 3 2 3 4 4 4 5 5 5 5 6 6 7 7 6 6 6 5 5 4 3 3 2 2 2 2 2 2 2 2 3 3 3 4 2 3 4 4 4 3
5 4 6 7 8 5 6 6 3 3 2 1 2 3 4 4 5 5 5 6 6 6 6 6 6 6 6 5 5 5 3 2 2 2 1 2 2 3 3 3 3 4 3 3 4 3 4 5 4
4 4 7 8 9 7 6 8 2 2 1 1 1 1 2 3 4 4 5 5 5 5 5 5 5 5 6 5 5 5 3 2 1 2 2 2 2 3 3 3 3 4 3 3 4 4 5 4 5
2 5 7 8 9 8 4 7 2 1 3 3 2 1 0 1 2 3 4 4 4 4 5 5 6 5 6 5 5 4 3 2 2 2 2 3 2 2 3 3 3 4 3 3 4 4 5 4 5
5 6 5 6 6 4 1 6 1 5 4 3 3 2 2 1 1 2 4 4 4 5 5 5 6 5 5 5 4 4 4 4 4 3 3 3 2 2 3 3 4 4 3 3 4 4 5 5 5
6 7 7 7 7 5 4 4 3 5 4 4 4 4 4 2 1 1 3 4 4 5 5 5 5 5 4 4 4 4 4 4 3 3 3 3 3 2 3 4 4 4 4 4 3 4 4 4 5
6 6 7 9 10 9 5 2 4 3 4 5 5 5 5 4 3 2 2 3 3 4 4 5 5 5 5 4 4 4 4 3 2 2 3 3 2 3 3 3 3 3 3 4 4 4 5 5 5
6 6 6 8 8 8 6 4 1 2 4 6 6 5 5 4 3 3 2 2 2 2 3 3 4 4 4 4 3 3 3 3 3 3 2 2 3 3 3 3 3 3 3 4 4 5 4 5 5
4 5 6 7 7 9 7 2 5 4 4 5 5 6 5 4 3 3 2 2 2 1 2 3 3 3 3 3 2 2 3 3 3 3 3 2 2 3 3 3 3 3 3 3 3 5 4 5 5
5 6 6 7 7 8 9 2 6 6 5 4 5 5 5 4 3 3 3 2 2 1 1 2 2 2 2 2 2 2 2 2 2 2 2 2 2 2 2 3 3 3 3 3 4 5 5 5 6
Wind_Direction
202 206 220 229 234 230 231 180 191 151 119 80 78 301 325 2 349 54 100 148 146 143 139 149 152 151 147 142 140 138 137 137 138 138 139 141 142 143 144 144 143 143 142 141 138 134 131 125 123
201 200 223 235 246 223 196 172 181 79 87 117 126 186 77 64 47 90 129 143 146 143 145 150 150 154 151 145 142 142 142 142 141 141 142 142 143 144 146 147 146 146 147 148 147 147 144 143 148
204 226 243 236 240 244 191 131 128 109 134 162 138 72 30 62 91 112 132 145 145 142 145 139 152 155 153 149 147 146 146 145 144 144 144 145 146 148 150 151 152 153 156 157 159 161 166 176 206
207 216 232 241 229 237 283 133 138 158 152 162 165 122 95 58 84 122 138 147 146 147 150 140 154 153 152 152 152 150 150 149 148 147 148 149 150 151 154 157 160 164 168 171 175 185 202 223 236
231 236 226 225 220 203 206 207 207 217 191 180 199 129 103 86 108 130 144 150 151 151 149 141 152 153 153 155 155 154 151 150 149 149 150 152 154 156 161 167 173 179 185 193 199 215 231 243 250
221 231 231 221 200 193 187 205 221 226 204 188 190 150 100 121 133 142 147 152 152 151 149 139 149 155 156 156 156 154 151 149 149 148 148 150 153 159 167 176 184 190 200 212 223 235 244 252 256
244 234 240 232 209 199 186 204 225 234 215 190 183 149 124 141 141 146 148 151 151 152 152 152 157 159 159 157 156 153 150 149 148 148 150 154 157 162 170 174 184 198 210 227 237 250 257 259 263
262 249 232 227 215 200 159 191 225 252 220 113 189 180 141 148 148 147 146 151 153 157 160 162 161 161 164 161 157 155 153 155 155 155 159 165 173 179 185 195 181 210 227 244 256 269 274 271 264
245 241 224 215 216 191 160 195 174 221 181 167 192 40 114 142 151 153 152 158 162 164 167 170 165 164 170 165 155 163 161 163 168 169 170 195 206 195 191 177 161 219 238 255 268 276 272 264 239
231 238 222 245 289 248 190 224 194 201 195 183 160 133 135 152 163 167 167 169 174 174 175 172 171 171 174 168 158 172 175 168 188 180 185 206 205 223 228 137 183 220 240 244 249 260 250 254 251
230 248 249 277 290 280 241 242 231 231 227 212 172 154 153 164 173 178 177 175 177 175 175 176 176 178 178 170 171 174 177 172 187 187 198 206 217 213 225 210 193 214 231 245 230 244 259 273 285
227 250 274 278 285 260 251 247 234 245 259 216 161 159 161 173 182 184 181 178 176 177 177 174 173 175 181 179 175 182 182 180 193 183 214 209 215 227 233 247 264 253 254 274 278 273 280 284 281
221 231 247 254 249 250 251 246 256 253 241 175 162 168 175 180 185 187 183 178 178 179 178 176 176 172 174 176 190 186 194 190 184 200 204 225 227 237 239 248 267 278 290 271 280 292 294 288 279
230 243 247 240 228 216 228 235 227 231 189 164 170 179 182 185 187 186 182 184 187 183 179 176 177 178 179 182 188 187 196 195 197 193 193 227 242 247 256 248 260 276 289 310 301 299 290 290 293
234 235 224 212 208 186 223 221 214 213 186 177 181 188 184 186 188 193 189 189 189 184 179 179 180 180 183 189 197 192 191 195 198 181 184 219 242 242 257 261 257 278 280 272 280 287 283 279 279
222 228 216 150 201 199 238 229 103 168 191 199 197 191 186 187 195 194 190 188 188 185 182 183 182 178 182 185 195 197 194 196 200 192 177 204 239 250 259 266 269 273 270 275 278 285 291 289 285
208 231 234 156 207 228 241 245 179 198 212 215 211 201 193 188 195 191 188 185 186 187 184 181 178 178 178 177 179 180 169 205 213 206 205 206 244 262 262 269 284 268 276 288 294 308 298 295 293
253 255 247 234 197 240 245 252 237 218 222 220 213 206 197 195 197 189 185 184 183 182 180 177 174 172 172 171 169 177 175 190 199 191 193 236 235 245 263 251 263 274 281 289 297 296 293 293 292
280 268 265 275 254 257 258 263 256 235 225 222 212 207 203 201 192 187 185 187 182 179 178 180 179 170 176 180 188 188 190 197 197 188 191 223 238 242 255 270 248 261 275 293 301 295 290 289 296
253 260 266 271 222 260 264 268 256 227 216 216 210 205 201 200 189 186 186 185 187 185 184 182 181 178 182 179 188 190 187 202 199 205 187 227 235 248 250 267 266 268 268 268 286 289 293 294 296
252 274 291 288 266 242 250 230 214 170 178 196 205 209 202 202 196 189 189 188 188 187 187 182 182 182 181 176 174 164 173 190 192 194 195 220 235 237 265 264 274 272 270 277 281 278 280 285 280
271 301 285 268 257 244 254 268 193 154 168 171 193 198 202 199 197 192 187 188 189 187 180 179 178 176 174 178 179 186 194 200 197 218 209 224 235 243 242 255 267 273 277 276 273 284 279 276 279
308 297 270 261 262 262 242 268 185 161 258 319 285 224 209 202 196 194 189 185 181 176 172 173 172 171 173 179 180 196 204 201 192 198 194 240 229 238 240 247 252 262 268 276 281 284 279 275 279
278 258 249 241 246 250 257 269 274 48 341 335 336 339 276 193 181 175 171 166 158 164 170 169 168 171 174 179 183 192 193 201 207 211 205 224 223 233 242 257 254 258 268 264 269 276 270 273 274
257 274 262 243 238 254 184 260 6 42 19 357 353 16 49 68 117 151 161 159 159 163 168 167 167 170 177 184 190 193 198 206 209 225 217 240 245 244 250 267 259 263 266 265 272 274 281 273 265
282 283 291 294 292 293 239 259 79 57 32 32 38 46 59 51 88 137 154 160 169 162 161 167 171 172 179 187 194 199 205 217 214 228 255 250 265 271 277 269 265 267 267 267 268 271 274 270 266
280 283 304 289 279 273 258 237 137 64 26 32 40 44 47 42 47 73 124 150 169 167 168 175 172 175 183 188 193 198 209 233 238 231 239 250 263 268 271 275 272 273 272 270 266 268 275 277 270
292 302 286 283 291 286 275 263 285 49 14 18 19 20 24 33 40 58 81 112 129 154 160 169 175 188 187 186 191 194 212 228 233 241 248 256 262 275 271 276 278 276 272 267 268 266 271 274 270
278 266 281 284 288 291 292 327 44 51 45 15 9 16 20 21 33 54 80 94 94 97 150 167 175 183 188 189 190 205 220 223 229 237 245 253 269 266 266 272 268 262 265 266 265 272 273 272 275
277 289 290 287 286 279 286 336 72 57 46 29 23 23 30 29 32 46 65 85 99 126 157 181 173 179 184 176 185 211 225 220 228 242 271 276 272 272 280 280 274 268 265 265 266 271 270 271 274